Location: Gradaro
(45.0833°N, 10.8833°E)
Time: 09:11:39
(UTC+00:00)

FALCON 9 DEB - Pass Details

Date: 29 November 2020
Orbit: 376 x 396 km, 53.0° (Epoch: 23 January)

Event Time Altitude Azimuth Distance (km) Brightness Sun altitude
Exits shadow 05:21:27 22° 285° (WNW) 929 4.2 -12.3°
Maximum altitude 05:23:01 36° 338° (NNW) 653 3.7 -12.0°
Drops below altitude 10° 05:26:03 10° 47° (NE) 1,451 6.2 -11.5°
Sets 05:28:14 0° 56° (NE) 2,315 7.4 -11.1°
